Flag for Ecuador Weather past 2 weeks in Quito, Ecuador

Now
63 °F

Partly sunny.


Feels Like: 63 °F
Forecast: 47 / 72 °F
Wind: 18 mph from South

Location: Latacunga Airport

Current Time: Jul 30, 2014 at 2:33:09 PM

Latest Report: Jul 30, 2014 at 2:00 PM


Visibility: N/A

Pressure: 30.45 "Hg

Humidity: 56%

Dew point: 46 °F

Location of QuitoLocation

Historic Weather in Quito — Graph

°F

Quito temperature yesterday

Maximum temperature yesterday: 64 °F (at 1:00 PM)
Minimum temperature yesterday: 46 °F (at 5:00 AM)
Average temperature yesterday: 54 °F

Past Weeks' High & Low Weather Summary

 TemperatureHumidityPressure
High68 °F (Jul 22, 12:00 PM)100% (Jul 17, 2:00 AM)30.54 "Hg (Jul 17, 2:00 AM)
Low37 °F (Jul 26, 7:00 AM)40% (Jul 22, 12:00 PM)30.30 "Hg (Jul 23, 4:00 PM)
Average55 °F81%30.44 "Hg
* Reported Jul 15 1:00 PM — Jul 30 1:00 PM, Quito, Weather by CustomWeather, © 2014

Note: Actual official high and low records may vary slightly from our data, if they occured in-between our weather recording intervals... More about our weather records

Advertising

Quito weather history for previous 24 hours

 ConditionsComfort  
Time TempWeatherWind HumidityBarometerVisibility
1:00 PM
Jul 30
63 °FPartly sunny.18 mph59%30.48 "HgN/A
12:00 PM59 °FPartly sunny.18 mph63%30.51 "HgN/A
11:00 AM59 °FPartly sunny.17 mph63%30.51 "HgN/A
10:00 AM55 °FPartly sunny.12 mph77%30.54 "HgN/A
9:00 AM54 °FPartly sunny.7 mph88%30.54 "HgN/A
8:00 AM50 °FPartly sunny.6 mph94%30.54 "HgN/A
7:00 AM48 °FPartly sunny.7 mph100%30.51 "HgN/A
6:00 AM48 °FPassing clouds.5 mph100%30.51 "HgN/A
5:00 AM50 °FPassing clouds.8 mph94%30.51 "HgN/A
3:00 AM50 °FPassing clouds.9 mph100%30.48 "HgN/A
2:00 AM50 °FPassing clouds.12 mph100%30.48 "HgN/A
1:00 AM50 °FPassing clouds.10 mph100%30.51 "HgN/A
12:00 AM50 °FPassing clouds.5 mph94%30.51 "HgN/A
11:00 PM
Jul 29
50 °FPassing clouds.3 mph94%30.51 "HgN/A
10:00 PM48 °FPassing clouds.9 mph94%30.51 "HgN/A
9:00 PM52 °FPassing clouds.16 mph82%30.51 "HgN/A
8:00 PM52 °FPassing clouds.10 mph82%30.48 "HgN/A
7:00 PM54 °FPassing clouds.13 mph77%30.45 "HgN/A
6:00 PM59 °FScattered clouds.21 mph63%30.39 "HgN/A
5:00 PM64 °FScattered clouds.21 mph56%30.39 "HgN/A
4:00 PM63 °FScattered clouds.12 mph56%30.39 "HgN/A
3:00 PM63 °FPartly sunny.18 mph59%30.39 "HgN/A
2:00 PM63 °FPartly sunny.17 mph59%30.42 "HgN/A
Weather by CustomWeather, © 2014

See weather overviewHow to use our weather pages